Temperature
28 27 27 27 30 30 30 31 31 30 30 30 29 28 28 27 26 23 23 22 21 20 20 20 19 19 19 19 19 19 19 18 18 18 18 18 18 18 18 18 18 18 18 18 18 18 18 18 18
28 27 28 30 31 30 30 31 30 30 30 30 29 28 27 26 25 23 23 22 21 20 20 20 19 19 19 19 19 18 18 18 18 18 18 18 18 18 18 18 18 18 18 18 18 18 18 18 18
29 28 30 32 32 30 30 31 31 31 30 30 28 27 26 25 24 23 23 22 21 20 20 20 20 19 19 19 19 18 18 18 18 18 18 18 18 18 18 18 18 18 18 18 18 18 18 18 18
28 31 32 33 31 32 32 32 32 31 30 30 28 27 26 25 24 23 23 22 21 20 20 20 20 19 19 19 19 18 18 18 18 18 18 18 18 18 18 18 18 18 18 18 18 18 18 18 18
30 33 33 32 32 33 33 33 32 31 30 29 27 26 25 24 24 23 23 22 21 20 20 20 20 19 19 19 18 18 18 18 18 18 18 18 18 18 18 18 18 18 18 18 18 18 18 18 18
33 34 33 32 32 33 33 33 32 31 30 29 27 26 25 24 24 24 23 23 22 21 20 20 20 19 19 19 18 18 18 18 18 18 18 18 18 18 18 18 18 18 18 18 18 18 18 18 18
34 35 33 33 32 33 33 33 32 31 31 29 28 26 25 24 24 24 23 23 22 21 20 20 20 20 19 19 19 18 18 18 18 18 18 18 18 18 18 18 18 18 18 18 18 18 18 18 18
35 35 34 33 33 33 33 33 32 31 30 29 29 27 25 24 24 23 23 22 22 21 21 20 19 19 19 19 19 19 19 18 18 18 18 18 18 18 18 18 18 18 18 18 18 18 18 18 18
35 35 33 34 33 33 33 33 31 30 30 29 28 27 25 24 24 23 23 22 22 21 21 21 20 19 19 18 19 19 19 19 18 18 18 18 18 18 18 18 18 18 18 18 18 18 18 18 18
36 34 34 35 35 34 33 33 31 30 29 28 27 26 24 24 24 23 23 22 22 21 21 21 20 20 19 19 19 19 18 18 18 18 18 18 18 18 18 18 18 18 18 18 18 18 18 18 18
36 35 35 35 35 34 33 33 32 31 30 28 26 25 25 24 24 24 23 23 22 21 21 21 20 20 20 19 19 19 18 18 18 18 18 18 18 18 18 18 18 18 18 18 18 18 18 18 18
36 36 35 35 35 34 34 33 32 31 30 28 27 26 25 25 24 24 23 23 22 21 21 21 20 20 20 19 19 19 19 19 18 18 18 18 18 18 18 18 18 18 18 18 18 18 18 18 18
35 36 35 35 35 34 33 33 32 31 30 28 27 26 25 25 24 24 23 22 22 21 21 20 20 20 19 19 19 19 19 19 18 18 18 18 18 18 18 18 18 18 18 18 18 18 18 18 18
36 36 35 35 35 34 33 32 31 31 30 29 28 27 26 25 24 23 23 22 21 21 20 20 20 20 19 19 19 19 19 19 18 18 18 18 18 18 18 18 18 18 18 18 18 18 18 18 18
35 35 35 35 34 34 33 32 32 31 30 29 28 27 26 25 24 24 23 22 21 21 20 20 20 19 19 19 19 19 19 19 18 18 18 18 18 18 18 18 18 18 18 18 18 18 18 18 18
35 34 33 35 35 34 33 31 32 31 30 30 29 27 26 25 25 24 23 22 21 21 20 20 19 19 19 19 19 19 19 18 18 18 18 18 18 18 18 18 18 18 18 18 18 18 18 18 18
34 33 33 34 35 35 33 31 33 32 31 30 29 28 26 25 25 24 23 22 21 20 20 20 19 19 19 19 19 19 19 18 18 18 18 18 18 18 18 18 18 18 18 18 18 18 18 18 18
33 34 34 34 35 34 33 32 33 32 31 30 29 28 26 25 25 24 23 22 21 20 20 20 19 19 19 19 19 19 19 18 18 18 18 18 18 18 18 18 18 18 18 18 18 18 18 18 18
34 34 34 34 35 34 33 32 33 33 32 30 29 28 27 26 25 24 23 22 21 20 20 20 19 19 19 19 19 18 18 18 18 18 18 18 18 18 18 18 18 18 18 18 18 18 18 18 18
35 34 34 35 35 34 32 31 32 32 32 31 30 28 27 26 25 24 23 22 21 20 20 19 19 19 19 19 19 18 18 18 18 18 18 18 18 18 18 18 18 18 18 18 18 18 18 18 18
34 34 34 34 34 34 32 31 31 32 32 31 30 29 28 27 25 24 23 22 21 20 20 20 19 19 19 19 19 18 18 18 18 18 18 18 18 18 18 18 18 18 18 18 18 18 18 18 18
34 35 34 34 33 32 33 30 30 31 31 31 30 29 28 27 25 24 23 22 21 20 20 20 19 19 19 19 19 18 18 18 18 18 18 18 18 18 18 18 18 18 18 18 18 18 18 18 18
34 35 34 34 33 32 33 31 30 31 30 31 31 29 28 27 25 24 23 22 21 21 20 20 19 19 19 19 18 18 18 18 18 18 18 18 18 18 18 18 18 18 18 18 18 18 18 18 18
35 35 34 34 33 31 32 31 29 30 30 30 30 29 28 27 26 24 23 22 22 21 20 20 19 19 19 19 18 18 18 18 18 18 18 18 18 18 18 18 18 18 18 18 18 18 18 18 18
34 33 32 31 31 30 32 31 30 31 31 31 30 29 28 27 26 24 23 22 22 21 20 20 19 19 19 19 18 18 18 18 18 18 18 18 18 18 18 18 18 18 18 18 18 17 18 18 18
33 33 31 30 30 30 31 31 31 32 32 31 30 29 28 27 26 25 24 22 22 21 21 20 20 19 19 19 19 18 18 18 18 18 18 18 18 18 18 18 18 18 18 17 17 17 17 17 17
33 33 34 32 31 30 30 30 30 31 32 31 31 29 29 28 27 25 24 23 22 21 21 20 20 19 19 19 19 18 18 18 18 18 18 18 18 18 18 18 18 17 17 17 17 17 17 17 17
34 34 33 32 30 30 30 29 29 30 31 31 30 29 29 28 27 26 24 23 22 21 21 20 20 19 19 19 19 18 18 18 18 18 18 18 18 18 18 17 17 17 17 17 17 17 17 17 17
33 33 32 32 32 31 29 28 30 29 30 31 30 29 29 28 27 25 24 24 23 22 21 20 19 19 19 19 18 18 18 18 18 18 18 18 17 17 17 17 17 17 17 17 17 17 16 16 16
34 33 33 31 31 31 31 28 30 30 30 30 30 29 28 28 27 26 24 24 23 22 21 20 20 19 19 18 18 18 18 18 18 18 17 17 17 17 17 17 17 17 17 17 16 16 16 16 16
Wind_Speed
9 11 10 6 1 7 18 18 17 17 17 17 17 16 20 18 14 13 13 18 20 18 17 16 14 15 14 14 13 13 13 13 13 13 12 13 13 14 14 14 14 14 15 15 14 15 14 14 14
10 12 9 3 4 12 16 16 16 15 15 17 19 21 21 20 18 16 15 17 19 18 17 16 15 14 14 13 13 13 13 13 12 12 12 12 12 13 14 14 14 14 14 14 14 14 14 13 12
11 15 4 3 13 14 16 15 14 13 14 16 19 19 16 15 16 14 15 17 18 18 18 17 15 14 14 13 13 12 12 12 12 12 12 12 12 13 13 13 13 13 13 14 14 13 13 13 12
8 4 2 10 16 16 16 14 14 14 14 14 15 14 16 15 16 16 16 17 19 19 19 17 15 14 13 13 12 12 12 12 12 12 12 13 12 13 13 13 13 13 13 13 13 12 12 11 10
9 2 7 14 15 16 15 14 15 14 16 18 19 19 17 17 17 16 15 16 17 18 19 17 15 14 13 12 12 12 12 12 12 12 12 12 12 12 12 12 13 13 13 13 12 12 11 10 9
6 1 9 13 16 16 14 14 15 15 14 16 18 17 14 15 14 13 14 14 16 18 18 17 15 14 13 12 12 11 11 11 11 12 12 12 12 12 12 12 12 12 12 12 12 12 11 9 7
3 4 12 14 15 14 14 14 14 14 13 13 16 16 12 13 13 12 12 12 13 17 17 16 15 14 13 12 11 11 11 11 11 11 11 12 12 12 12 12 12 12 12 11 11 10 9 7 5
2 5 11 13 14 15 15 15 15 14 12 10 11 12 14 14 13 13 12 12 11 11 13 14 15 15 14 13 12 11 11 10 10 10 10 11 11 12 12 11 11 11 11 10 10 9 8 6 3
3 5 11 12 12 12 13 13 15 14 14 14 15 16 17 17 14 13 11 11 9 9 8 10 12 13 13 13 13 12 11 10 10 9 10 10 9 11 10 11 10 10 10 9 9 8 7 5 4
5 8 13 12 12 11 11 12 13 13 12 15 16 18 18 15 13 12 12 11 9 8 8 7 8 9 10 10 12 11 10 10 8 8 10 8 6 8 11 12 10 10 9 8 8 7 7 7 6
7 10 11 11 12 10 10 11 12 12 12 15 17 17 16 14 11 10 10 11 10 8 6 7 7 6 6 6 8 7 7 9 7 6 6 6 7 9 10 9 9 8 9 8 8 8 7 6 4
7 9 9 10 9 9 10 11 12 14 15 15 16 16 14 12 10 10 9 10 9 9 7 7 6 6 5 4 4 5 5 5 6 7 5 6 4 4 6 6 8 8 7 5 6 5 4 3 3
6 6 7 8 8 9 10 11 12 14 15 16 16 15 14 11 9 9 9 9 9 8 6 7 6 5 4 3 1 2 3 4 6 7 4 4 3 3 4 3 3 5 7 6 3 2 3 1 2
3 4 5 6 8 8 10 9 9 13 14 15 14 13 12 12 11 10 9 9 8 7 6 7 6 5 4 2 0 1 3 3 4 5 5 3 3 3 2 2 2 2 3 4 3 2 2 1 1
1 2 3 5 6 8 8 7 9 11 12 13 12 11 11 11 11 10 9 9 9 7 7 6 6 6 5 4 3 1 1 3 3 4 4 3 4 4 3 2 2 2 3 3 2 2 2 3 3
5 6 4 6 5 7 5 6 9 12 11 11 11 11 10 8 9 9 10 8 9 8 7 5 6 7 6 4 2 1 1 2 2 3 4 3 4 5 3 2 2 3 3 3 2 2 2 2 1
7 6 4 5 5 5 5 7 7 10 11 11 10 10 10 8 8 8 10 9 9 8 7 5 3 6 6 5 3 2 1 1 2 3 3 4 5 5 4 1 2 3 3 2 3 2 2 2 2
6 4 3 4 5 5 5 7 8 9 9 10 10 10 10 9 8 9 9 10 9 8 7 6 4 4 5 4 3 1 2 2 2 3 3 4 4 5 3 3 3 3 2 2 1 1 1 1 2
5 4 1 3 4 2 4 4 6 8 8 9 10 10 10 9 10 10 10 10 10 8 7 6 5 5 4 4 4 3 3 3 3 3 5 6 4 4 3 1 2 2 2 2 2 1 2 3 3
4 4 3 2 3 1 4 2 4 5 7 9 10 10 10 10 11 11 10 9 9 8 7 6 5 5 5 4 3 3 3 3 4 2 3 5 5 5 5 3 3 2 1 2 2 1 1 3 3
5 3 3 2 1 3 4 3 5 6 6 8 10 10 9 11 11 11 9 8 8 8 7 6 5 6 5 4 3 2 2 2 2 3 3 3 5 5 3 4 3 2 3 3 3 3 3 3 3
6 3 4 6 5 4 4 2 4 8 7 8 8 10 10 10 11 10 9 8 8 8 7 6 6 6 5 5 4 4 4 3 3 3 3 3 4 4 5 4 4 3 2 2 4 4 3 3 3
6 4 5 7 8 6 4 1 4 8 7 7 8 9 10 11 11 10 9 8 8 8 8 7 6 5 5 4 4 4 3 2 2 2 2 3 3 4 5 5 3 3 3 3 3 2 3 2 3
7 7 9 10 9 7 4 1 4 5 7 8 8 8 10 11 11 10 9 8 7 7 7 7 6 5 4 4 3 3 3 2 1 1 1 2 2 3 4 4 3 4 3 3 3 2 3 2 2
8 8 6 7 6 5 4 2 5 9 10 10 10 10 10 11 11 11 9 9 7 7 6 6 6 5 4 4 3 3 3 2 2 2 2 3 2 2 2 2 2 3 3 3 2 2 2 3 3
10 12 8 6 3 3 3 3 6 9 10 12 11 11 11 11 10 10 10 9 7 7 6 6 6 5 5 4 3 2 2 2 2 2 2 2 1 1 1 1 2 3 3 3 2 2 3 2 3
11 11 12 10 9 5 3 5 7 7 10 11 12 11 10 9 10 10 10 9 8 7 6 6 6 5 5 5 4 3 2 1 1 1 1 1 1 1 0 1 2 2 2 2 1 1 2 1 1
13 10 7 8 6 6 5 6 5 9 9 10 11 11 10 10 9 9 9 9 9 8 7 6 6 5 4 4 4 4 3 2 1 1 1 1 2 2 1 1 1 1 0 1 1 1 0 1 0
13 11 8 7 8 8 3 0 4 7 7 9 10 10 10 10 10 9 7 8 8 9 8 7 6 5 4 3 3 3 3 2 1 0 0 0 1 1 1 1 1 1 1 1 0 0 0 0 0
13 13 11 8 7 7 5 2 6 7 8 8 9 10 9 8 9 10 8 8 7 7 7 7 6 5 4 4 3 3 2 2 1 1 0 0 0 0 0 0 1 0 1 1 0 1 0 0 1
Wind_Direction
250 241 231 245 215 74 67 67 67 68 67 63 62 66 61 60 76 94 110 110 110 111 112 107 101 100 97 96 96 96 95 94 93 93 95 95 95 95 95 94 95 97 99 99 98 97 96 97 98
269 253 239 251 73 73 72 71 70 69 73 73 70 74 74 74 86 100 109 115 115 116 115 108 105 101 100 99 99 97 96 95 94 94 95 96 97 98 98 98 97 98 100 100 99 97 97 98 100
266 262 264 74 69 73 76 77 78 80 81 83 78 70 75 88 96 108 119 119 112 108 107 110 108 104 102 101 100 99 98 97 97 96 96 96 97 99 99 99 98 99 101 101 100 98 98 100 103
266 253 108 73 71 73 77 84 86 83 81 81 87 81 77 89 103 114 124 119 115 115 114 114 113 109 107 105 104 102 101 100 100 99 98 99 99 100 100 100 99 99 102 103 100 99 101 103 106
252 264 88 81 77 78 79 81 83 80 80 82 87 92 89 95 108 118 120 118 118 116 116 120 118 115 112 110 107 105 104 102 103 103 102 102 102 103 103 103 101 99 102 105 103 103 104 106 107
265 171 88 85 81 80 82 84 86 86 93 101 103 101 101 110 114 116 115 117 119 118 119 123 123 121 118 115 112 111 110 107 107 108 107 107 108 107 106 106 105 104 106 107 106 106 106 107 108
299 68 86 88 87 82 80 82 85 87 87 92 110 112 120 122 119 117 114 113 116 122 128 134 135 131 126 121 119 116 114 114 115 117 117 116 114 113 112 110 111 109 110 112 112 113 113 111 111
5 67 82 84 85 83 82 81 81 80 80 87 111 118 131 131 130 121 118 111 110 116 129 139 141 142 142 134 132 128 126 126 127 129 129 129 127 123 123 118 116 116 115 117 119 122 124 126 133
25 74 77 79 84 88 91 92 89 80 83 71 78 111 128 136 133 130 123 117 116 115 124 135 137 146 147 142 141 143 142 142 146 146 149 153 151 139 136 119 125 125 125 128 132 136 142 153 177
58 71 73 79 84 85 84 92 101 99 98 98 97 108 125 137 141 142 136 133 132 128 127 129 129 142 142 140 143 155 154 155 168 156 167 177 156 139 126 131 136 139 142 147 157 161 174 193 191
65 74 76 81 86 89 91 93 97 102 108 118 124 129 137 141 144 141 139 140 141 136 126 120 110 105 117 128 149 148 148 151 157 150 158 157 144 139 138 149 152 161 167 175 168 185 203 197 185
73 72 79 82 86 92 90 88 86 87 98 116 128 136 141 147 148 143 137 136 134 132 136 118 101 92 77 84 119 144 146 151 142 147 183 157 158 152 150 161 165 169 178 173 175 194 195 166 160
86 88 88 97 96 94 91 86 92 98 106 117 129 140 146 144 144 136 129 126 129 134 132 111 106 96 84 63 29 126 120 139 140 151 172 153 146 136 135 136 159 182 167 165 182 173 133 134 176
79 98 99 96 93 94 92 91 98 110 118 125 133 140 146 145 147 141 138 136 137 139 133 125 126 124 118 126 1 47 114 121 134 143 153 154 132 120 126 152 176 178 148 144 158 156 159 182 194
179 191 150 124 119 115 104 107 117 124 126 129 137 143 143 148 148 147 147 151 148 142 136 137 152 148 156 177 197 157 165 151 135 133 149 168 159 152 163 169 192 160 132 143 173 172 187 191 184
231 225 192 135 131 127 125 120 130 134 132 135 139 139 140 138 144 145 149 148 144 144 145 168 173 153 163 182 197 164 164 141 143 151 158 165 166 175 186 187 184 166 181 191 184 218 201 199 189
242 226 182 138 139 132 126 123 135 141 140 141 142 141 141 144 145 141 146 145 143 144 153 169 157 151 165 176 183 182 152 157 177 173 168 178 190 180 194 206 162 193 196 205 217 176 204 203 200
259 262 171 140 136 118 114 134 144 142 143 143 144 143 146 154 152 143 143 144 142 145 152 162 166 159 165 163 174 188 182 206 221 193 177 186 205 188 203 206 193 222 206 214 222 167 194 238 232
273 295 260 128 108 103 118 126 140 146 145 141 145 147 150 154 147 143 147 146 146 146 155 166 170 161 168 175 180 185 195 206 213 213 185 186 206 191 198 249 178 223 222 210 205 201 210 233 229
252 264 258 152 119 112 107 127 165 149 150 149 150 150 152 152 142 144 151 149 151 154 161 166 170 168 181 182 181 190 198 209 201 202 167 194 200 200 197 202 235 226 217 223 242 232 242 253 231
259 260 285 286 196 213 170 193 184 159 149 144 148 149 154 152 147 146 151 152 155 159 164 170 163 166 180 177 180 192 184 235 202 185 182 203 206 208 221 194 224 232 225 207 225 224 228 247 253
261 239 266 277 267 251 226 190 170 163 157 147 146 146 147 140 138 143 150 154 158 162 162 157 157 165 169 177 195 191 194 208 208 199 188 193 206 211 220 217 217 237 249 209 229 219 228 233 254
273 281 255 263 267 273 258 206 168 154 146 139 136 137 139 136 138 143 148 152 158 162 160 156 153 162 169 186 199 200 209 210 208 201 188 202 210 216 223 219 213 222 241 238 244 228 231 225 233
269 271 257 248 254 255 250 235 136 141 138 134 128 130 135 134 138 141 146 146 150 152 155 154 153 161 172 190 196 196 221 234 250 243 252 233 224 225 231 224 209 212 231 239 238 238 231 236 241
236 250 252 241 236 249 211 172 134 134 139 132 135 138 136 138 142 145 148 148 149 150 151 146 148 159 170 183 190 195 205 220 235 233 233 242 245 240 228 224 212 221 223 224 227 232 232 229 237
228 243 253 269 275 259 233 151 125 131 130 131 134 130 135 142 146 149 151 150 152 153 149 143 143 154 169 175 176 191 191 211 238 238 250 234 246 252 241 189 203 229 223 229 209 222 235 224 232
234 243 262 268 268 260 194 134 131 142 141 135 131 130 137 139 140 144 147 145 148 150 146 143 142 154 167 166 160 170 173 195 258 284 272 292 298 256 306 169 208 232 221 224 214 226 248 219 233
248 252 266 272 279 274 189 175 161 159 150 141 133 137 140 136 138 140 141 146 147 149 146 140 142 148 158 163 168 161 163 161 179 280 3 10 355 6 4 327 291 296 263 198 205 242 222 156 204
225 240 253 273 276 283 273 126 148 155 157 145 142 142 142 143 140 136 143 138 144 147 146 147 146 153 158 158 152 141 143 149 148 172 2 341 349 17 353 347 333 352 30 46 191 234 154 236 21
229 235 237 251 271 286 288 154 155 168 155 145 141 137 137 139 134 136 137 129 132 134 139 141 148 156 157 150 142 137 136 133 142 166 214 236 17 8 73 28 345 338 55 68 50 310 38 56 49
Height
1478 1478 1478 1480 1479 1481 1487 1484 1482 1485 1487 1489 1490 1492 1497 1500 1507 1521 1524 1525 1527 1527 1528 1529 1530 1531 1532 1533 1534 1534 1535 1536 1537 1537 1538 1539 1540 1540 1541 1541 1542 1543 1544 1544 1545 1546 1547 1548 1549
1479 1478 1481 1479 1480 1493 1494 1486 1487 1488 1490 1492 1495 1498 1503 1508 1514 1520 1524 1527 1529 1529 1530 1531 1532 1533 1534 1535 1536 1537 1537 1538 1539 1540 1540 1541 1542 1542 1543 1544 1544 1545 1546 1546 1548 1548 1549 1550 1551
1479 1479 1480 1475 1481 1493 1494 1487 1487 1489 1492 1495 1500 1504 1508 1515 1519 1523 1527 1529 1531 1531 1532 1533 1534 1535 1536 1537 1538 1539 1539 1540 1541 1542 1543 1543 1544 1545 1545 1546 1547 1547 1548 1549 1550 1551 1551 1552 1553
1481 1479 1478 1478 1487 1484 1485 1486 1488 1491 1494 1496 1501 1508 1514 1518 1522 1525 1528 1530 1532 1533 1534 1535 1536 1537 1538 1539 1540 1541 1542 1543 1543 1544 1545 1545 1546 1547 1548 1548 1549 1549 1550 1551 1552 1553 1554 1554 1555
1482 1478 1478 1485 1488 1483 1483 1486 1489 1493 1496 1501 1507 1513 1519 1523 1525 1528 1530 1532 1534 1535 1535 1536 1537 1539 1540 1541 1542 1543 1544 1544 1545 1546 1547 1547 1548 1549 1549 1551 1551 1552 1552 1553 1554 1555 1556 1557 1558
1479 1474 1483 1492 1489 1485 1485 1488 1492 1496 1500 1504 1510 1517 1523 1526 1527 1530 1532 1534 1535 1536 1536 1538 1539 1540 1542 1543 1544 1545 1545 1546 1547 1548 1549 1549 1550 1551 1552 1553 1553 1554 1555 1556 1556 1557 1558 1559 1560
1477 1474 1483 1487 1490 1489 1487 1490 1493 1496 1500 1504 1509 1516 1524 1527 1529 1531 1534 1536 1537 1537 1538 1539 1541 1542 1543 1544 1546 1547 1547 1548 1549 1550 1550 1551 1552 1553 1554 1555 1555 1556 1557 1558 1559 1559 1560 1561 1562
1475 1476 1482 1485 1490 1491 1490 1492 1496 1501 1504 1506 1508 1515 1523 1528 1531 1533 1535 1537 1538 1540 1541 1541 1543 1543 1545 1546 1547 1548 1549 1550 1551 1552 1552 1553 1554 1555 1556 1557 1557 1558 1559 1560 1561 1562 1563 1564 1565
1475 1479 1487 1487 1490 1490 1490 1494 1499 1503 1505 1509 1511 1516 1523 1528 1531 1534 1536 1538 1540 1542 1543 1544 1545 1545 1547 1548 1549 1549 1550 1552 1553 1554 1554 1555 1556 1557 1558 1559 1559 1560 1561 1562 1563 1564 1565 1566 1567
1477 1484 1485 1482 1485 1488 1491 1495 1499 1505 1509 1514 1518 1521 1525 1529 1532 1533 1536 1538 1541 1543 1544 1545 1546 1547 1548 1549 1550 1551 1552 1553 1554 1555 1556 1557 1558 1559 1560 1560 1561 1562 1563 1564 1565 1566 1566 1567 1568
1478 1482 1482 1483 1487 1490 1493 1495 1498 1503 1508 1514 1519 1523 1527 1530 1532 1534 1536 1538 1540 1543 1544 1546 1547 1548 1549 1550 1551 1552 1553 1554 1555 1557 1558 1559 1560 1560 1561 1561 1562 1563 1564 1565 1566 1567 1568 1569 1570
1481 1482 1483 1486 1489 1491 1493 1496 1500 1503 1509 1515 1519 1523 1527 1530 1532 1534 1536 1538 1540 1542 1544 1546 1547 1548 1549 1550 1552 1553 1554 1555 1556 1557 1559 1560 1560 1561 1562 1563 1563 1564 1565 1566 1567 1568 1569 1570 1571
1483 1484 1485 1487 1490 1492 1495 1499 1502 1506 1512 1516 1520 1524 1527 1530 1532 1534 1537 1539 1540 1542 1544 1545 1546 1548 1549 1551 1552 1554 1555 1556 1557 1558 1559 1561 1561 1562 1563 1564 1564 1565 1566 1567 1568 1569 1570 1570 1571
1485 1485 1486 1488 1490 1493 1497 1501 1505 1508 1512 1517 1521 1524 1527 1530 1532 1535 1537 1539 1541 1542 1544 1545 1546 1548 1549 1551 1552 1554 1555 1556 1557 1558 1559 1560 1561 1562 1563 1563 1564 1566 1567 1568 1568 1569 1570 1570 1571
1486 1488 1488 1487 1490 1493 1497 1504 1505 1508 1512 1516 1520 1524 1527 1530 1532 1535 1537 1539 1540 1542 1543 1544 1546 1547 1548 1550 1551 1553 1555 1556 1557 1558 1559 1560 1561 1561 1562 1563 1564 1565 1567 1567 1568 1569 1569 1570 1571
1485 1490 1494 1488 1488 1491 1500 1511 1504 1507 1512 1515 1519 1524 1528 1530 1532 1534 1536 1538 1539 1541 1542 1544 1546 1546 1548 1549 1551 1552 1554 1555 1556 1557 1558 1559 1560 1561 1562 1563 1564 1565 1566 1567 1568 1568 1569 1570 1570
1490 1496 1496 1490 1487 1489 1495 1506 1502 1505 1509 1514 1518 1522 1527 1530 1532 1534 1536 1537 1538 1540 1542 1543 1545 1546 1547 1548 1550 1551 1553 1554 1555 1556 1557 1558 1559 1560 1561 1562 1563 1564 1566 1567 1567 1567 1568 1569 1569
1500 1493 1493 1492 1485 1488 1496 1501 1500 1503 1508 1512 1517 1521 1525 1529 1531 1534 1535 1537 1538 1540 1541 1542 1544 1545 1546 1547 1549 1551 1552 1553 1554 1556 1556 1557 1558 1559 1560 1561 1562 1564 1565 1565 1566 1566 1567 1568 1568
1488 1492 1493 1488 1484 1490 1496 1500 1500 1502 1506 1511 1516 1520 1524 1527 1530 1533 1535 1537 1538 1539 1540 1541 1543 1544 1545 1546 1548 1549 1551 1552 1553 1554 1555 1556 1557 1558 1559 1561 1562 1562 1563 1564 1565 1565 1566 1566 1567
1487 1493 1493 1487 1484 1492 1499 1503 1499 1501 1504 1509 1514 1519 1522 1526 1529 1532 1535 1537 1538 1539 1540 1541 1542 1543 1544 1545 1547 1548 1550 1551 1552 1554 1554 1555 1556 1557 1558 1559 1560 1561 1562 1562 1563 1563 1564 1565 1566
1488 1492 1493 1493 1489 1490 1497 1508 1502 1500 1503 1508 1512 1516 1520 1524 1528 1531 1534 1536 1537 1538 1539 1540 1541 1541 1543 1544 1546 1548 1549 1550 1551 1552 1553 1553 1554 1555 1556 1558 1558 1559 1560 1560 1561 1562 1562 1563 1564
1494 1485 1488 1490 1497 1502 1497 1520 1509 1503 1504 1506 1511 1515 1519 1523 1527 1530 1533 1535 1537 1538 1538 1539 1540 1541 1542 1543 1545 1546 1547 1548 1550 1550 1551 1552 1553 1554 1555 1556 1556 1557 1558 1558 1559 1559 1560 1561 1562
1488 1483 1486 1490 1496 1502 1497 1512 1515 1502 1507 1506 1509 1513 1518 1522 1526 1530 1532 1534 1536 1537 1538 1539 1539 1540 1541 1542 1544 1545 1546 1547 1548 1549 1550 1551 1551 1552 1553 1554 1554 1555 1556 1556 1557 1557 1558 1558 1559
1484 1486 1487 1489 1494 1514 1504 1511 1521 1507 1506 1505 1509 1513 1518 1522 1526 1529 1532 1534 1535 1537 1537 1538 1539 1539 1541 1542 1543 1544 1545 1546 1547 1548 1548 1549 1550 1550 1551 1551 1552 1552 1553 1553 1554 1555 1555 1556 1557
1488 1499 1512 1516 1518 1519 1499 1507 1513 1500 1499 1502 1508 1514 1518 1522 1525 1528 1530 1533 1535 1536 1537 1537 1538 1539 1540 1541 1542 1543 1544 1545 1546 1547 1547 1548 1548 1548 1549 1549 1549 1550 1550 1551 1552 1552 1552 1553 1554
1490 1495 1515 1529 1528 1520 1503 1509 1505 1494 1498 1502 1507 1512 1517 1520 1524 1526 1529 1531 1533 1535 1537 1537 1538 1538 1539 1540 1541 1542 1543 1544 1545 1546 1546 1546 1546 1547 1547 1547 1547 1548 1548 1549 1549 1550 1550 1551 1551
1490 1492 1487 1500 1509 1519 1515 1509 1502 1496 1499 1502 1507 1512 1515 1519 1522 1526 1529 1531 1533 1535 1536 1537 1537 1538 1539 1540 1540 1541 1542 1543 1544 1545 1545 1545 1545 1545 1545 1545 1545 1545 1546 1546 1547 1548 1548 1549 1549
1484 1486 1492 1501 1518 1525 1517 1516 1514 1503 1501 1502 1506 1511 1515 1519 1523 1526 1528 1531 1532 1534 1535 1536 1537 1538 1539 1540 1540 1541 1541 1542 1543 1543 1544 1544 1544 1544 1544 1544 1544 1544 1544 1544 1545 1545 1546 1546 1546
1488 1490 1493 1496 1498 1514 1527 1526 1499 1500 1500 1502 1506 1510 1515 1518 1522 1526 1528 1530 1532 1534 1535 1536 1537 1538 1539 1539 1540 1541 1541 1541 1542 1542 1542 1543 1543 1542 1542 1542 1542 1542 1542 1542 1543 1543 1543 1544 1544
1480 1485 1490 1506 1506 1501 1511 1522 1496 1497 1499 1502 1506 1510 1514 1518 1522 1525 1528 1530 1532 1534 1535 1536 1537 1538 1538 1539 1539 1540 1540 1541 1541 1541 1541 1542 1541 1541 1541 1541 1541 1541 1541 1541 1541 1541 1541 1541 1541